CAPE
44 43 29 12 10 12 5 4 6 6 8 9 8 27 11 1 0 12 85 96 37 42 60 81 77 71 16 0 0 0 15 166 80 0 0 0 0 0 0 0 0 0 0 0 0 0 0
41 39 35 19 10 11 5 6 3 4 7 6 0 0 0 0 0 6 28 82 116 147 92 97 86 149 7 0 0 0 0 20 20 0 0 0 0 0 0 0 0 0 0 0 0 0 0
30 31 35 27 20 8 15 8 3 1 2 3 0 0 0 0 0 0 19 108 148 135 151 114 105 47 1 0 0 0 0 1 0 0 0 0 0 0 0 0 0 0 0 0 0 0 0
23 19 26 27 20 17 9 7 6 1 0 1 0 0 0 0 0 2 31 124 204 202 188 81 72 0 0 0 0 0 0 0 0 0 0 0 0 0 0 0 0 0 0 0 0 0 0
20 15 14 23 23 17 18 12 6 4 1 0 0 0 0 0 0 0 16 116 119 131 202 155 16 0 0 2 0 0 0 0 0 0 0 0 0 0 0 0 0 0 0 0 0 0 0
15 17 20 17 22 18 17 9 8 7 2 0 0 0 0 0 0 0 0 0 1 0 0 0 0 0 0 0 0 0 0 0 0 0 0 0 0 0 0 0 0 0 0 0 0 0 0
11 16 16 12 14 13 18 20 7 4 2 0 0 0 0 0 0 0 0 0 0 0 0 0 0 0 0 0 0 0 0 0 0 0 0 0 0 0 0 0 0 0 0 0 0 0 0
10 19 14 6 6 4 9 20 6 4 4 0 0 0 0 0 0 0 0 0 0 0 0 0 0 0 0 0 0 0 0 0 0 0 0 0 0 0 0 0 0 0 0 0 0 0 0
15 15 11 5 8 9 12 22 12 7 3 0 0 0 0 0 0 0 0 0 0 0 0 0 0 0 0 0 0 0 0 0 0 0 0 0 0 0 0 0 0 0 0 0 0 0 0
19 11 11 9 5 4 6 17 18 3 0 0 0 0 0 0 0 0 0 0 0 0 0 0 0 0 0 0 0 0 0 0 0 0 0 0 0 0 0 0 0 0 0 0 0 0 0
19 10 8 6 4 3 3 8 10 2 0 0 0 0 0 0 0 0 0 0 0 0 0 0 0 0 0 0 0 0 0 0 0 0 0 0 0 0 0 0 0 0 0 0 0 0 0
14 6 6 6 4 3 2 2 5 4 0 0 0 0 0 0 0 0 0 0 0 0 0 0 0 0 0 0 0 0 0 0 0 0 0 0 0 0 0 0 0 0 0 0 0 0 0
14 7 4 7 2 2 1 2 4 2 3 0 0 0 0 0 0 0 0 0 0 0 0 0 0 0 0 0 0 0 0 0 0 0 0 0 0 0 0 0 0 0 0 0 0 0 0
18 4 6 8 0 1 1 2 2 5 3 1 0 0 0 0 0 0 0 0 0 0 0 0 0 0 0 0 0 0 0 0 0 0 0 0 0 0 0 0 0 0 0 0 0 0 0
4 2 1 1 0 0 0 1 3 5 4 0 0 0 0 0 0 0 0 0 0 0 0 0 0 0 0 0 0 0 0 0 0 0 0 0 0 0 0 0 0 0 0 0 0 0 0
2 3 1 0 0 0 0 0 1 5 3 0 0 0 0 0 0 0 0 0 0 0 0 0 0 0 0 0 0 0 0 0 0 0 0 0 0 0 0 0 0 0 0 0 0 0 0
5 3 5 0 0 0 0 0 1 5 4 0 0 0 0 0 0 0 0 0 0 0 0 0 0 0 0 0 0 0 0 0 0 0 0 0 0 0 0 0 0 0 0 0 0 0 0
10 3 6 0 0 0 0 0 0 3 3 0 0 0 0 0 0 0 0 0 0 0 0 0 0 0 0 0 0 0 0 0 0 0 0 0 0 0 0 0 0 0 0 0 0 0 0
9 9 6 0 0 0 0 0 0 1 1 0 0 0 0 0 0 0 0 0 0 0 0 0 0 0 0 0 0 0 0 0 0 0 0 0 0 0 0 0 0 0 0 0 0 0 0
7 2 3 1 0 0 0 0 0 0 0 0 0 0 0 0 0 0 0 0 0 0 0 0 0 0 0 0 0 0 0 0 0 0 0 0 0 0 0 0 0 0 0 0 0 0 0
5 5 3 1 0 0 0 0 0 0 0 0 0 0 0 0 0 0 0 0 0 0 0 0 0 0 0 0 0 0 0 0 0 0 0 0 0 0 0 0 0 0 0 0 0 0 0
0 0 0 0 0 0 0 0 0 0 0 0 0 0 0 0 0 0 0 0 0 0 0 0 0 0 0 0 0 0 0 0 0 0 0 0 0 0 0 0 0 0 0 0 0 0 0
0 0 0 0 0 0 0 0 0 0 0 0 0 0 0 0 0 0 0 0 0 0 0 0 0 0 0 0 0 0 0 0 0 0 0 0 0 0 0 0 0 0 0 0 0 0 0
0 0 0 0 0 0 0 0 0 0 0 0 0 0 0 0 0 0 0 0 0 0 0 0 0 0 0 0 0 0 0 0 0 0 0 0 0 0 0 0 0 0 0 0 0 0 0
0 0 0 0 0 0 0 0 0 0 0 0 0 0 0 0 0 0 0 0 0 0 0 0 0 0 0 0 0 0 0 0 0 0 0 0 0 0 0 0 0 0 0 0 0 0 0
0 0 0 0 0 0 0 0 0 0 0 0 0 0 0 0 0 0 0 0 0 0 0 0 0 0 0 0 0 0 0 0 0 0 0 0 0 0 0 0 0 0 0 0 0 0 0
5 0 0 0 0 0 0 0 0 0 0 0 0 0 0 0 0 0 0 0 0 0 0 0 0 0 0 0 0 0 0 0 0 0 0 0 0 0 0 0 0 0 0 0 0 0 0
5 2 0 0 0 0 0 0 0 0 3 0 0 0 0 0 0 0 0 0 0 0 0 0 0 0 0 0 0 0 0 0 0 0 0 0 0 0 0 0 0 0 0 0 0 0 0
1 1 0 0 0 0 0 0 0 2 1 11 2 0 0 2 0 0 0 0 0 0 0 0 0 0 0 0 0 0 0 0 0 0 0 0 0 0 0 0 0 0 0 0 0 0 0
CIN
-0 -0 -0 -0 -0 -0 -0 -0 -0 -0 -0 -0 -0 -0 -6 -0 -0 -24 -20 -8 -21 -25 -28 -19 -28 -58 -48 -0 -0 -0 -168 -27 -67 -0 -0 -0 -0 -0 -0 -0 -0 -0 -0 -0 -0 -0 -0
-0 -0 -0 -0 -0 -0 -0 -0 -0 -0 -0 -0 -0 -0 -0 -0 -0 -61 -64 -57 -25 -16 -40 -9 -23 -77 -62 -0 -0 -0 -0 -199 -82 -0 -0 -0 -0 -0 -0 -0 -0 -0 -0 -0 -0 -0 -0
-0 -0 -0 -0 -0 -0 -0 -0 -0 -0 -0 -0 -0 -0 -0 -0 -0 -0 -88 -82 -77 -77 -63 -20 -15 -78 -69 -0 -0 -0 -0 -17 -0 -0 -0 -0 -0 -0 -0 -0 -0 -0 -0 -0 -0 -0 -0
-0 -0 -0 -0 -0 -0 -0 -0 -0 -0 -0 -0 -0 -0 -0 -0 -0 -27 -154 -118 -117 -111 -78 -44 -43 -0 -0 -0 -0 -0 -0 -0 -0 -0 -0 -0 -0 -0 -0 -0 -0 -0 -0 -0 -0 -0 -0
-0 -0 -0 -0 -0 -0 -0 -0 -0 -0 -0 -0 -0 -0 -0 -0 -0 -0 -215 -173 -156 -175 -130 -82 -78 -0 -0 -59 -0 -0 -0 -0 -0 -0 -0 -0 -0 -0 -0 -0 -0 -0 -0 -0 -0 -0 -0
-0 -1 -0 -0 -0 -0 -0 -0 -0 -0 -0 -0 -0 -0 -0 -0 -0 -0 -0 -0 -58 -0 -0 -0 -0 -0 -0 -0 -0 -0 -0 -0 -0 -0 -0 -0 -0 -0 -0 -0 -0 -0 -0 -0 -0 -0 -0
-1 -0 -0 -0 -0 -0 -0 -0 -0 -0 -0 -0 -0 -0 -0 -0 -0 -0 -0 -0 -0 -0 -0 -0 -0 -0 -0 -0 -0 -0 -0 -0 -0 -0 -0 -0 -0 -0 -0 -0 -0 -0 -0 -0 -0 -0 -0
-0 -0 -0 -0 -0 -0 -0 -0 -0 -0 -0 -0 -0 -0 -0 -0 -0 -0 -0 -0 -0 -0 -0 -0 -0 -0 -0 -0 -0 -0 -0 -0 -0 -0 -0 -0 -0 -0 -0 -0 -0 -0 -0 -0 -0 -0 -0
-0 -0 -0 -0 -0 -0 -0 -0 -0 -0 -0 -0 -0 -0 -0 -0 -0 -0 -0 -0 -0 -0 -0 -0 -0 -0 -0 -0 -0 -0 -0 -0 -0 -0 -0 -0 -0 -0 -0 -0 -0 -0 -0 -0 -0 -0 -0
-1 -0 -0 -0 -0 -0 -0 -0 -0 -0 -0 -0 -0 -0 -0 -0 -0 -0 -0 -0 -0 -0 -0 -0 -0 -0 -0 -0 -0 -0 -0 -0 -0 -0 -0 -0 -0 -0 -0 -0 -0 -0 -0 -0 -0 -0 -0
-1 -0 -0 -0 -0 -0 -0 -0 -0 -0 -0 -0 -0 -0 -0 -0 -0 -0 -0 -0 -0 -0 -0 -0 -0 -0 -0 -0 -0 -0 -0 -0 -0 -0 -0 -0 -0 -0 -0 -0 -0 -0 -0 -0 -0 -0 -0
-2 -0 -0 -0 -0 -0 -0 -0 -0 -0 -0 -0 -0 -0 -0 -0 -0 -0 -0 -0 -0 -0 -0 -0 -0 -0 -0 -0 -0 -0 -0 -0 -0 -0 -0 -0 -0 -0 -0 -0 -0 -0 -0 -0 -0 -0 -0
-0 -0 -0 -0 -0 -0 -0 -0 -0 -0 -0 -0 -0 -0 -0 -0 -0 -0 -0 -0 -0 -0 -0 -0 -0 -0 -0 -0 -0 -0 -0 -0 -0 -0 -0 -0 -0 -0 -0 -0 -0 -0 -0 -0 -0 -0 -0
-0 -0 -0 -0 -0 -0 -0 -0 -0 -0 -0 -0 -0 -0 -0 -0 -0 -0 -0 -0 -0 -0 -0 -0 -0 -0 -0 -0 -0 -0 -0 -0 -0 -0 -0 -0 -0 -0 -0 -0 -0 -0 -0 -0 -0 -0 -0
-0 -0 -1 -0 -0 -0 -0 -0 -0 -0 -0 -0 -0 -0 -0 -0 -0 -0 -0 -0 -0 -0 -0 -0 -0 -0 -0 -0 -0 -0 -0 -0 -0 -0 -0 -0 -0 -0 -0 -0 -0 -0 -0 -0 -0 -0 -0
-0 -0 -1 -0 -0 -0 -0 -0 -0 -0 -0 -0 -0 -0 -0 -0 -0 -0 -0 -0 -0 -0 -0 -0 -0 -0 -0 -0 -0 -0 -0 -0 -0 -0 -0 -0 -0 -0 -0 -0 -0 -0 -0 -0 -0 -0 -0
-1 -1 -3 -0 -0 -0 -0 -0 -0 -0 -0 -0 -0 -0 -0 -0 -0 -0 -0 -0 -0 -0 -0 -0 -0 -0 -0 -0 -0 -0 -0 -0 -0 -0 -0 -0 -0 -0 -0 -0 -0 -0 -0 -0 -0 -0 -0
-4 -3 -5 -0 -0 -0 -0 -0 -0 -0 -0 -0 -0 -0 -0 -0 -0 -0 -0 -0 -0 -0 -0 -0 -0 -0 -0 -0 -0 -0 -0 -0 -0 -0 -0 -0 -0 -0 -0 -0 -0 -0 -0 -0 -0 -0 -0
-6 -5 -7 -0 -0 -0 -0 -0 -0 -0 -0 -0 -0 -0 -0 -0 -0 -0 -0 -0 -0 -0 -0 -0 -0 -0 -0 -0 -0 -0 -0 -0 -0 -0 -0 -0 -0 -0 -0 -0 -0 -0 -0 -0 -0 -0 -0
-9 -10 -10 -3 -0 -0 -0 -0 -0 -0 -0 -0 -0 -0 -0 -0 -0 -0 -0 -0 -0 -0 -0 -0 -0 -0 -0 -0 -0 -0 -0 -0 -0 -0 -0 -0 -0 -0 -0 -0 -0 -0 -0 -0 -0 -0 -0
-10 -11 -11 -3 -0 -0 -0 -0 -0 -0 -0 -0 -0 -0 -0 -0 -0 -0 -0 -0 -0 -0 -0 -0 -0 -0 -0 -0 -0 -0 -0 -0 -0 -0 -0 -0 -0 -0 -0 -0 -0 -0 -0 -0 -0 -0 -0
-0 -0 -0 -0 -0 -0 -0 -0 -0 -0 -0 -0 -0 -0 -0 -0 -0 -0 -0 -0 -0 -0 -0 -0 -0 -0 -0 -0 -0 -0 -0 -0 -0 -0 -0 -0 -0 -0 -0 -0 -0 -0 -0 -0 -0 -0 -0
-0 -0 -0 -0 -0 -0 -0 -0 -0 -0 -0 -0 -0 -0 -0 -0 -0 -0 -0 -0 -0 -0 -0 -0 -0 -0 -0 -0 -0 -0 -0 -0 -0 -0 -0 -0 -0 -0 -0 -0 -0 -0 -0 -0 -0 -0 -0
-0 -0 -0 -0 -0 -0 -0 -0 -0 -0 -0 -0 -0 -0 -0 -0 -0 -0 -0 -0 -0 -0 -0 -0 -0 -0 -0 -0 -0 -0 -0 -0 -0 -0 -0 -0 -0 -0 -0 -0 -0 -0 -0 -0 -0 -0 -0
-0 -0 -0 -0 -0 -0 -0 -0 -0 -0 -0 -0 -0 -0 -0 -0 -0 -0 -0 -0 -0 -0 -0 -0 -0 -0 -0 -0 -0 -0 -0 -0 -0 -0 -0 -0 -0 -0 -0 -0 -0 -0 -0 -0 -0 -0 -0
-0 -0 -0 -0 -0 -0 -0 -0 -0 -0 -0 -0 -0 -0 -0 -0 -0 -0 -0 -0 -0 -0 -0 -0 -0 -0 -0 -0 -0 -0 -0 -0 -0 -0 -0 -0 -0 -0 -0 -0 -0 -0 -0 -0 -0 -0 -0
-13 -7 -0 -0 -0 -0 -0 -0 -0 -0 -0 -0 -0 -0 -0 -0 -0 -0 -0 -0 -0 -0 -0 -0 -0 -0 -0 -0 -0 -0 -0 -0 -0 -0 -0 -0 -0 -0 -0 -1 -0 -0 -0 -0 -0 -0 -0
-19 -24 -0 -0 -0 -0 -0 -0 -0 -0 -4 -0 -0 -0 -0 -0 -0 -0 -0 -0 -0 -0 -0 -0 -0 -0 -0 -0 -0 -0 -0 -0 -0 -0 -0 -0 -0 -0 -0 -0 -0 -0 -0 -0 -0 -0 -0
-0 -0 -0 -0 -0 -0 -0 -0 -0 -6 -7 -4 -7 -0 -0 -3 -0 -0 -0 -0 -0 -0 -0 -0 -0 -0 -0 -0 -0 -0 -0 -0 -0 -0 -0 -0 -0 -0 -0 -0 -0 -0 -0 -0 -0 -0 -0
Wind_Speed
18 17 17 17 17 16 15 15 15 15 15 14 12 11 11 12 12 13 12 9 2 2 2 7 7 4 3 1 3 2 8 9 5 4 4 5 3 3 7 7 4 4 2 4 4 6 6
19 19 17 17 17 17 16 15 15 14 14 13 11 10 10 13 15 11 11 6 6 8 2 8 11 7 3 2 1 1 2 5 4 3 2 5 2 3 6 4 4 3 5 3 6 7 6
19 19 19 18 17 18 16 15 14 14 14 13 12 12 12 15 17 14 10 9 7 9 9 7 9 3 1 1 3 4 7 4 6 3 3 3 2 4 5 6 4 3 6 5 10 7 5
18 20 19 18 18 18 18 16 14 14 13 13 13 14 14 15 17 17 17 13 7 7 5 4 11 5 2 1 6 7 3 4 3 3 2 2 4 2 3 4 6 6 6 4 5 7 5
18 19 20 19 19 19 19 18 17 14 13 13 13 15 15 15 16 18 18 15 7 8 3 4 6 4 6 13 5 3 2 4 4 2 2 4 5 3 4 6 6 8 4 3 2 4 2
18 18 19 20 19 19 20 19 17 15 13 12 12 14 15 15 15 17 16 6 9 5 5 1 2 8 11 5 5 3 3 4 5 4 3 7 6 4 5 5 6 4 6 2 4 2 2
18 19 20 20 20 20 21 21 19 16 13 12 12 13 15 14 16 18 10 5 9 9 11 3 1 10 9 8 3 8 6 5 2 10 5 4 9 4 2 2 3 6 5 5 1 1 2
17 19 19 20 21 22 22 22 20 16 13 11 9 11 14 14 14 14 5 6 2 2 5 4 3 4 2 2 13 15 4 5 8 6 3 9 5 3 2 2 6 5 7 2 1 3 2
18 18 19 20 21 21 22 22 21 18 14 9 9 9 10 11 8 6 5 3 3 1 4 8 3 4 3 1 6 7 5 3 8 8 7 8 4 3 4 8 8 5 6 3 2 4 3
16 17 18 19 19 20 21 21 21 19 14 9 9 10 11 11 6 1 3 5 3 0 7 12 10 6 7 4 6 3 4 4 7 5 3 7 6 4 6 7 3 5 2 3 4 4 3
16 17 17 18 19 19 19 21 22 21 14 11 11 11 9 8 2 3 3 4 2 3 8 11 10 6 7 7 3 10 5 8 6 3 4 2 5 7 9 3 2 4 2 4 3 5 4
15 16 17 18 18 19 19 19 19 20 16 12 10 12 4 5 3 1 5 3 3 9 2 8 5 7 5 8 6 6 6 9 4 6 7 3 2 4 2 3 4 4 5 7 5 3 4
13 16 16 17 18 18 18 17 17 18 17 14 10 10 5 1 1 5 3 3 8 8 4 6 4 6 4 7 7 7 6 8 4 5 5 5 4 4 5 3 4 6 6 4 6 6 6
12 15 15 17 18 18 19 18 19 19 17 13 8 4 4 1 1 3 3 7 11 5 3 3 2 3 5 5 4 6 3 5 4 4 4 5 6 6 7 3 1 3 4 7 6 3 5
13 15 15 16 17 19 20 19 19 20 19 9 2 3 2 3 3 2 6 8 6 5 2 3 4 4 4 3 1 5 3 3 1 2 5 4 3 3 4 3 3 1 3 3 8 1 4
11 13 14 16 18 19 19 20 20 19 19 8 2 2 3 4 2 5 8 3 2 3 1 2 3 4 3 4 3 4 3 2 1 1 1 4 5 2 2 1 4 3 4 5 4 2 4
8 10 11 14 16 17 18 19 20 20 20 4 3 4 3 5 3 7 6 2 1 2 3 4 1 2 2 2 3 4 2 1 2 3 3 3 4 2 1 4 7 2 1 4 3 4 5
10 11 11 12 14 15 17 18 20 21 19 7 2 4 2 3 7 3 3 3 1 1 1 3 3 3 2 1 2 2 0 1 5 2 2 1 4 1 1 2 2 2 5 6 6 5 2
10 11 13 10 13 15 17 19 19 19 13 2 3 2 2 3 5 3 2 1 1 2 1 2 2 3 2 2 2 0 1 1 2 3 1 0 2 3 7 5 3 4 4 2 4 3 7
10 10 11 11 12 14 17 19 20 20 9 4 3 4 6 6 1 5 2 1 1 2 1 1 1 1 2 2 3 2 2 2 3 2 4 3 2 5 7 3 3 4 5 6 6 3 4
9 9 10 10 11 13 15 17 19 21 10 3 4 1 2 2 4 3 2 1 0 1 1 1 0 2 3 0 1 1 1 2 2 4 3 2 3 2 5 7 4 5 5 7 10 9 8
10 9 9 9 8 10 12 15 17 20 11 5 3 2 2 0 2 1 2 2 1 2 2 2 2 1 4 4 6 5 5 4 5 2 2 2 3 2 6 4 6 8 9 12 16 14 12
10 10 9 9 7 8 10 12 14 18 8 4 2 2 2 2 1 2 3 3 4 3 2 2 4 1 3 5 4 3 3 1 5 8 8 6 5 3 5 4 7 9 14 15 4 6 13
11 10 10 8 6 5 7 9 10 12 8 3 1 3 4 3 1 3 1 2 3 3 2 2 3 3 2 1 2 0 2 5 6 6 4 7 6 4 4 3 3 7 4 8 11 7 11
13 11 12 9 7 4 4 5 6 7 9 4 0 1 3 2 4 3 3 2 4 4 3 3 3 1 1 5 3 4 3 3 2 1 6 4 5 1 3 3 9 6 5 7 7 4 6
14 13 12 10 9 6 3 4 3 5 6 3 2 2 3 2 5 1 3 3 3 2 5 3 2 2 4 3 2 4 5 5 5 1 4 2 3 4 3 4 7 4 1 0 1 5 7
15 13 12 11 9 7 5 2 2 1 3 2 0 2 4 1 3 1 3 4 5 2 2 3 2 0 2 3 2 4 5 3 4 5 5 5 3 11 7 5 8 7 4 0 4 4 3
15 14 13 12 11 10 8 6 6 3 2 2 2 1 3 2 5 2 2 1 1 1 3 2 3 2 3 1 3 4 3 4 3 3 6 8 7 5 5 5 10 1 3 5 3 2 4
18 16 15 14 13 12 9 8 7 7 5 5 2 0 2 2 6 2 4 4 5 4 5 3 3 3 5 3 3 1 3 1 2 4 2 3 6 6 9 7 3 3 3 3 3 3 2
Wind_Direction
23 21 21 21 15 16 15 11 11 9 3 12 19 18 16 15 27 16 19 73 77 313 331 16 354 342 95 93 277 249 200 168 163 141 172 113 159 161 119 119 93 86 129 57 349 46 52
25 21 19 19 18 17 17 17 9 9 2 6 9 2 359 353 354 1 347 354 327 304 21 17 338 7 119 96 225 174 197 143 160 141 150 121 204 320 95 79 85 113 87 54 22 23 44
27 23 19 16 13 15 17 14 10 8 0 357 354 347 348 344 341 337 338 319 298 281 290 341 304 345 88 78 156 147 122 174 177 158 180 148 142 1 122 97 153 112 70 35 18 355 32
27 26 19 17 11 9 12 12 10 5 358 354 346 338 342 341 337 333 331 322 298 266 243 240 301 12 1 27 104 108 169 224 154 259 291 213 146 60 70 127 34 63 50 70 342 6 349
25 19 19 17 11 7 8 8 4 3 357 350 347 338 337 342 337 332 327 319 334 330 243 183 152 198 335 318 40 337 161 174 168 146 70 79 86 81 30 88 43 16 127 100 47 40 325
22 19 17 14 12 6 2 5 6 358 355 350 349 340 336 339 337 333 326 308 325 35 7 140 127 52 321 320 292 276 158 79 107 99 52 42 48 75 37 67 177 162 107 59 130 323 21
18 20 14 10 10 7 3 359 6 359 353 350 352 346 339 338 345 351 359 20 14 353 43 62 264 117 291 279 234 17 12 61 141 62 69 14 73 88 29 19 140 127 102 113 325 340 358
19 16 13 11 10 7 3 359 2 360 356 347 354 351 342 336 346 355 35 65 31 272 339 20 347 44 343 341 31 335 81 97 64 59 5 29 67 329 317 93 97 83 111 65 333 18 80
19 12 11 11 7 2 1 358 4 7 355 353 355 351 345 333 331 38 68 48 347 342 80 348 321 11 352 330 158 308 28 54 75 54 42 94 315 338 82 53 90 32 110 135 116 359 69
17 9 8 7 4 1 0 358 5 10 8 357 4 354 346 332 53 314 46 326 343 13 68 331 347 8 349 331 52 350 30 91 47 108 58 75 334 48 61 72 30 88 324 90 58 77 212
19 7 5 2 358 358 1 2 3 9 10 1 349 352 5 49 175 60 295 319 309 62 62 310 316 301 341 72 301 347 348 35 66 41 81 298 19 27 55 355 332 146 70 72 78 86 58
17 5 1 357 354 352 354 360 1 2 3 351 350 355 25 39 50 266 311 306 58 45 336 332 321 349 22 16 12 335 35 46 122 65 43 98 70 60 60 22 42 136 68 42 54 67 35
11 360 355 355 355 350 350 353 356 0 350 340 335 356 33 86 282 310 323 58 40 83 286 310 329 360 50 10 17 30 33 27 52 83 11 20 6 342 38 60 29 67 60 1 1 11 219
2 359 352 356 357 354 351 349 350 352 353 327 315 353 9 25 265 354 44 54 68 238 274 311 297 347 62 354 9 20 66 36 9 65 89 116 343 7 337 57 144 62 122 148 200 196 261
358 357 348 356 358 358 352 348 347 349 351 352 351 357 48 317 333 69 65 54 170 196 242 8 331 60 5 355 104 70 58 164 231 40 120 128 17 330 44 10 52 45 52 144 102 61 44
350 354 346 354 357 355 354 350 346 350 352 357 70 39 309 325 27 58 72 97 3 272 295 178 86 44 10 345 44 53 1 312 353 297 210 197 88 353 314 86 34 67 156 57 0 138 269
337 335 343 349 351 350 348 352 346 347 350 334 55 53 277 352 40 54 93 155 244 309 339 2 128 103 102 23 33 15 356 346 14 350 33 107 94 268 22 193 169 102 94 65 119 131 172
323 324 336 344 345 346 345 348 347 347 350 46 80 43 287 77 51 23 95 134 246 9 50 357 20 14 10 32 94 116 263 278 345 3 67 9 114 151 202 349 211 209 185 155 130 222 210
314 330 336 341 341 344 345 345 344 351 4 99 63 294 329 93 78 24 313 37 113 131 70 66 43 36 12 1 359 338 232 242 56 65 115 211 10 37 348 0 5 240 212 151 94 76 204
304 320 330 336 344 348 346 344 343 350 16 80 76 20 338 46 98 110 102 10 36 322 329 115 137 88 73 32 32 323 326 338 11 61 95 84 149 192 192 200 141 208 203 184 156 149 194
292 302 318 332 346 343 345 346 346 349 350 81 20 104 210 333 353 83 78 59 343 246 262 298 347 178 146 155 6 209 139 347 30 14 30 80 237 171 252 238 235 231 215 187 202 214 199
285 292 303 319 337 338 348 350 347 351 349 68 89 106 35 140 313 67 51 168 211 299 183 273 240 233 191 191 191 190 160 196 211 74 137 36 290 13 300 314 241 259 248 232 230 235 255
276 281 287 303 323 338 350 353 355 356 14 72 339 26 72 330 43 99 230 185 204 151 228 210 196 163 250 243 201 237 250 204 172 164 177 160 152 104 260 333 317 287 236 232 225 211 221
255 265 266 275 289 323 350 356 359 9 39 113 170 110 78 312 5 265 289 244 236 240 252 239 171 168 214 309 287 292 220 226 210 233 174 156 148 155 253 352 239 233 222 199 205 246 224
248 248 255 253 255 280 332 351 2 14 24 70 358 78 122 225 188 275 263 282 345 326 277 254 238 200 26 29 2 345 327 338 222 291 199 186 137 199 242 230 300 279 187 152 172 261 194
252 250 244 243 239 230 258 319 351 10 13 98 91 121 66 89 249 136 161 162 191 235 328 282 0 2 58 87 110 226 237 228 216 183 33 51 10 159 146 208 235 251 274 46 95 275 162
253 247 245 243 226 222 236 238 184 350 348 87 97 116 94 194 275 223 207 184 146 143 204 297 292 183 59 109 216 222 255 210 232 190 166 140 179 215 221 256 283 265 245 282 126 224 145
256 244 234 230 220 210 220 225 209 193 256 111 258 163 124 200 278 240 299 178 78 123 154 244 31 357 50 197 178 220 222 260 298 164 178 170 161 192 172 226 268 175 73 181 236 7 130
257 243 230 217 207 204 204 218 213 201 199 179 238 168 143 197 238 226 242 235 212 210 150 195 208 187 198 135 211 240 234 217 186 259 352 254 196 180 193 214 224 202 209 194 149 150 247